YAOGAN-30 R

导读

YAOGAN-30 R(遥感三十号R卫星)是中国于北京时间2020年3月24日在西昌卫星发射中心,由长征二号丙运载火箭以“一箭三星”方式送入预定轨道的遥感卫星,属于遥感三十号卫星组网工程。该卫星主要用于开展电磁环境探测及相关科学实验,同时可服务于土地勘测、农业监测和灾害应急响应等领域,进一步完善了我国遥感卫星组网性能,任务圆满成功,也是中科院微小卫星创新研究院2020年度首发卫星任务。

Basic Information
目录编号:
45460
目录名称:
YAOGAN-30 R
国际标识:
2020-021A
轨道中心:
EARTH
卫星名称:
YAOGAN-30 R
卫星全名:
--
卫星状态:
在轨 (已飞行2356 天)
发射日期:
2020-03-24 UTC
国别 :
中国 (CN)
星等 :
--
Orbit Information
数据来源 国际轨道数据
星历时间: 2026-09-05T22:47:53+0800
6小时前
查看轨道信息
半长轴: 6935.672km
偏心率: 0.000398
轨道倾角: 34.995°
近地点辐角 0.360°
升交点赤经 80.558°
平近点角 359.711°
近地点: 554.774km
远地点: 560.296km
周期: 95.806分钟
每日圈数: 15.03038
Detailed Information
使用方式:
暂无
2D Orbit Map
3D Orbit Map
Orbit Altitude Analysis Chart
Orbit Inclination Analysis Chart
Orbit Comprehensive Analysis Chart
View Comprehensive Chart
Conjunction Data List
Event ID Objects TCA Miss Dist (km) Collision Risk Probability Collision Risk Index (CRI) Action
CDM_260905-204204-546006-054225
2026-09-05T
20:42:56+0000
0.587 km
远距离
1.23939E-4 高风险 0.77
CDM_260905-181904-546006-054225
2026-09-05T
18:19:16+0000
2.703 km
极远距离
1.388594E-6 低风险 0.38
CDM_260907-205504-284704-546022
2026-09-07T
20:55:03+0000
2.837 km
极远距离
1.014707E-6 低风险 0.35